Theta_e
312 312 312 312 311 311 311 311 309 307 309 309 305 304 304 304 304 304 304 305 304 305 305 306 308 307 308 309 308 310 309 313 321 327 329 328 328 328 328 326 323 325 324 333 344 342 343 345 348 349 347 346 343 343 342 342 340 346 363 353 338 339 341 343 347 346 342 343 342 341 341 341 343 341 342 344 343 343 345 345 343 344 346 348 353 352 353 354
312 312 312 312 312 311 311 311 308 306 308 307 304 303 303 303 304 304 304 304 305 305 306 307 307 307 308 308 309 309 310 317 325 327 324 326 328 329 327 327 324 322 326 336 344 341 342 343 346 349 345 344 341 341 340 340 340 342 355 351 342 343 342 342 346 344 342 345 342 343 342 340 341 338 340 344 343 342 345 345 343 344 348 350 352 352 353 353
312 312 312 311 311 311 311 310 306 306 306 304 303 303 303 303 303 304 304 304 305 305 306 307 307 308 308 308 309 309 316 324 328 326 330 331 328 328 327 324 324 321 326 336 340 340 342 342 344 346 342 341 338 337 339 339 341 340 348 349 345 344 342 343 345 343 343 345 343 343 342 341 340 337 341 344 341 342 345 343 344 348 350 350 351 352 353 353
311 311 311 311 311 311 310 308 305 305 303 302 303 302 303 303 303 304 304 304 305 305 306 307 307 309 308 309 309 311 322 329 326 328 332 330 324 324 323 323 323 321 326 333 336 340 341 340 341 341 340 338 336 336 338 338 339 340 345 346 343 343 344 342 344 342 342 345 344 343 343 340 339 338 341 342 341 343 344 342 345 349 350 351 350 351 353 353
311 311 311 311 310 308 305 303 303 303 302 302 302 302 303 303 303 303 304 304 305 306 306 307 308 308 309 310 310 316 326 328 325 330 326 324 322 322 321 323 323 321 329 335 335 337 340 339 336 336 337 337 335 335 336 337 338 339 344 344 343 343 342 342 344 342 344 345 344 344 343 341 338 338 339 341 341 342 342 342 345 348 350 351 350 350 352 350
310 310 310 309 306 302 301 301 302 301 301 302 302 302 302 302 303 303 304 304 305 306 306 307 308 308 309 310 312 320 327 324 326 328 322 322 322 321 321 323 322 324 333 337 336 338 338 337 333 334 336 336 336 335 335 337 334 337 343 344 342 342 342 343 342 339 341 344 345 345 343 341 339 338 340 340 341 341 342 343 345 348 350 351 350 349 350 350
310 310 309 305 301 301 301 301 301 301 301 301 302 302 302 302 303 303 304 304 305 306 307 307 308 308 310 313 319 325 327 323 326 325 325 325 322 323 321 323 322 326 337 338 337 338 335 334 333 333 334 337 337 335 335 335 333 334 340 343 341 341 342 342 340 339 340 343 345 345 344 343 341 340 340 339 340 340 340 343 345 347 349 350 350 349 349 350
310 309 306 302 301 301 300 300 301 301 301 301 302 302 302 303 302 303 304 304 306 306 307 307 308 311 313 317 323 326 326 326 330 328 327 324 323 323 321 325 323 327 338 338 336 335 333 333 331 331 332 335 336 335 334 333 334 332 335 339 340 342 343 340 340 338 339 343 344 345 346 343 342 341 340 339 339 339 340 343 345 346 347 348 348 349 350 349
310 308 304 301 301 300 299 300 300 300 301 301 301 301 302 302 302 304 304 305 306 306 308 307 308 314 318 321 323 318 321 326 331 330 326 325 325 324 323 328 327 328 335 336 335 332 330 331 330 330 330 332 334 335 335 333 332 332 333 334 337 340 341 339 338 339 338 341 343 345 345 342 342 342 340 340 338 339 341 342 345 346 346 347 348 348 349 348
309 305 301 300 300 299 300 300 300 300 301 301 301 302 302 302 303 304 305 306 306 307 307 307 312 318 321 326 324 318 323 325 328 328 328 332 332 329 328 329 328 328 331 333 332 329 330 330 329 330 329 331 332 333 334 332 332 333 333 333 334 338 339 339 338 338 338 340 343 344 344 343 342 341 342 340 337 339 341 342 345 345 346 347 346 347 349 347
308 303 298 300 299 299 300 299 300 300 300 301 301 302 302 303 303 304 306 306 306 307 307 310 317 321 324 330 324 320 324 324 326 325 328 332 332 332 331 330 331 329 329 332 331 329 330 329 329 328 328 329 329 330 331 331 332 332 332 332 335 336 338 339 337 337 338 340 342 343 344 345 342 339 343 341 336 339 341 343 345 345 347 346 346 347 349 348
306 301 299 300 299 299 299 299 300 300 301 301 301 303 303 303 304 306 306 306 307 307 310 317 320 322 327 329 324 324 324 324 326 324 326 328 328 330 329 329 332 330 329 330 330 330 329 328 328 325 326 327 327 329 329 330 331 331 331 331 333 335 337 339 339 337 337 339 341 342 341 343 344 339 342 342 337 340 341 342 344 343 345 345 345 346 347 348
301 301 301 300 299 299 298 299 299 300 301 301 302 303 303 304 305 305 306 306 308 310 317 321 321 323 329 327 324 324 324 325 326 325 325 326 327 327 325 326 328 330 330 329 329 330 328 328 327 325 326 326 327 328 330 331 330 330 331 330 331 331 333 339 338 337 338 339 341 341 331 336 346 341 342 344 338 339 342 342 342 342 343 343 344 346 347 348
301 302 301 300 299 299 299 299 299 300 300 301 302 303 304 306 306 306 307 307 310 316 321 319 321 327 330 326 325 324 325 325 326 327 326 325 326 327 326 325 325 327 329 330 331 330 329 329 326 326 327 326 328 328 329 330 329 331 329 329 330 323 326 338 337 337 340 338 342 340 326 332 347 342 341 344 341 340 341 341 342 341 343 343 344 345 346 347
303 302 301 300 299 299 299 299 299 300 300 301 302 303 305 306 306 307 307 308 314 320 319 317 322 331 332 328 328 326 327 326 326 328 326 325 326 327 326 325 326 326 327 328 329 329 330 329 327 326 326 327 327 327 328 329 329 332 324 320 326 321 324 338 337 337 340 338 342 339 327 335 346 343 342 345 342 341 342 342 342 341 343 343 343 345 346 346
304 302 300 300 300 300 300 299 300 300 300 301 302 305 306 307 308 309 309 314 318 319 320 324 327 331 331 329 330 329 330 328 328 327 326 327 326 325 325 325 327 326 327 328 328 329 329 328 327 326 326 327 327 327 327 322 323 330 324 314 319 321 322 333 337 337 340 339 342 339 333 338 343 342 343 345 343 342 343 342 342 342 342 343 343 344 346 347
305 302 301 300 300 300 300 300 300 300 301 301 303 307 306 308 313 313 314 318 320 320 323 330 332 331 333 332 329 328 329 329 329 327 328 326 325 325 325 326 328 327 328 328 328 328 327 327 326 326 327 326 327 328 321 313 313 320 324 318 320 324 322 325 334 338 338 339 343 342 339 341 343 344 343 344 343 342 344 343 342 342 343 345 343 344 347 347
305 303 301 300 301 300 300 300 300 301 301 302 306 308 309 314 318 318 319 321 325 327 326 329 330 327 329 332 331 329 327 328 328 328 327 325 325 326 327 329 328 327 327 327 327 326 325 326 326 326 326 324 327 326 316 312 315 315 318 318 319 325 325 324 331 339 338 339 342 341 340 343 346 346 344 344 344 343 345 345 343 342 343 344 344 344 346 346
305 304 301 301 301 300 300 300 301 301 301 305 308 310 317 323 324 324 326 328 331 333 331 331 330 323 322 328 331 331 328 328 328 328 327 326 326 326 328 330 328 327 327 326 326 325 325 326 324 322 323 324 327 326 321 323 325 323 323 321 318 320 324 331 335 338 339 339 342 343 340 342 345 345 344 345 344 344 345 346 345 345 344 344 344 343 345 347
305 305 301 301 301 300 300 300 301 301 302 306 310 317 323 324 326 327 327 327 331 333 331 332 332 326 326 328 328 329 329 328 328 328 328 328 327 326 326 328 329 327 327 326 324 324 326 324 322 321 322 325 326 327 328 329 329 329 329 326 324 321 322 334 339 339 341 337 337 345 344 343 345 344 345 345 345 346 345 347 347 346 345 345 345 344 345 347
305 304 302 301 300 300 300 300 301 302 305 308 312 320 322 316 317 318 316 317 320 324 325 328 329 328 330 328 328 328 328 328 327 327 328 327 327 326 325 326 328 327 326 326 324 325 325 321 322 324 325 326 326 328 328 328 329 329 328 324 322 323 325 335 340 337 340 337 336 345 345 343 346 344 345 345 345 347 345 346 348 347 347 346 347 347 346 347
305 304 303 302 301 300 300 301 302 305 308 313 317 321 318 315 316 315 314 313 314 316 317 320 319 321 324 325 327 326 325 326 326 327 327 326 326 326 326 327 327 328 328 326 324 324 321 319 322 325 325 325 325 327 327 328 329 329 328 322 319 324 329 334 338 339 339 336 335 343 342 341 345 346 348 349 346 348 347 346 348 348 350 349 348 349 348 348
304 304 304 303 301 300 300 301 304 310 314 318 320 318 315 317 316 316 315 313 314 316 315 317 317 317 319 320 323 324 323 324 324 326 326 325 325 325 326 327 326 328 328 326 324 319 316 320 325 325 324 325 325 326 327 327 328 328 326 319 317 325 327 323 330 338 340 337 337 341 340 340 345 346 349 349 346 348 348 346 347 347 350 350 347 349 349 350
304 304 304 303 302 301 300 301 308 314 314 315 314 315 317 316 316 316 314 313 315 317 317 318 318 318 319 320 322 322 322 323 323 325 326 325 324 324 325 327 326 327 327 328 326 321 319 323 325 324 325 325 324 325 326 325 322 326 327 322 320 326 327 325 332 339 337 336 340 338 330 332 342 345 346 347 346 348 348 348 349 348 349 350 348 349 350 350
304 303 304 303 302 302 300 305 313 310 309 313 314 317 317 314 316 315 314 316 317 318 320 321 320 320 321 321 321 321 322 322 322 323 325 325 324 324 325 327 327 327 327 328 327 325 324 325 326 325 324 325 324 324 325 324 319 319 327 328 327 329 331 332 335 333 325 324 336 336 320 322 337 343 345 346 346 347 348 350 350 352 352 351 350 350 350 350
303 303 303 303 302 301 302 308 312 308 310 316 315 316 315 313 315 313 315 317 316 321 323 322 322 321 322 322 321 322 320 321 323 323 325 325 324 325 325 326 328 327 327 328 328 326 325 326 326 325 324 325 324 323 325 326 318 314 323 331 332 332 331 331 332 326 316 317 334 338 323 319 328 337 345 347 349 350 351 352 351 354 355 351 349 350 351 351
303 303 303 302 302 301 305 310 308 309 315 315 313 314 313 313 313 313 318 315 314 323 325 322 323 321 321 323 322 321 318 320 324 323 323 325 325 325 325 326 327 326 328 327 322 324 328 327 325 326 325 324 322 320 325 328 318 315 326 332 331 332 330 330 329 323 320 324 332 336 330 320 320 331 346 347 348 351 352 353 352 352 354 351 349 350 351 350
303 302 302 302 301 301 306 309 309 312 314 312 314 313 312 314 313 315 318 315 318 324 325 321 323 321 321 324 323 322 321 323 324 322 324 325 325 325 324 325 327 326 329 325 316 322 330 328 326 327 325 322 322 322 325 327 322 321 329 331 329 332 331 332 328 322 324 325 319 325 329 321 317 329 347 348 345 348 351 351 352 352 353 352 351 350 350 351
302 302 302 302 300 302 308 310 311 314 312 313 314 313 314 313 314 317 317 316 321 324 325 323 323 323 322 323 323 322 322 324 325 324 324 324 324 325 324 324 326 327 328 326 322 325 329 328 328 327 325 323 324 325 325 325 325 326 328 329 330 331 331 332 329 321 321 320 314 319 322 320 318 324 336 341 339 344 351 350 351 353 352 353 353 351 351 353
302 302 301 301 302 306 308 308 310 311 311 314 314 314 314 312 315 316 314 317 319 321 326 325 324 325 324 324 323 323 323 323 326 326 324 324 325 325 324 325 325 326 328 328 326 327 328 329 330 328 327 327 326 326 325 325 326 327 327 328 326 328 331 330 327 321 316 315 315 317 319 321 319 321 330 337 339 344 349 349 351 353 351 353 354 350 349 353
302 302 302 302 303 306 307 308 310 310 310 313 314 313 312 312 315 313 314 320 318 321 326 325 326 326 324 325 325 325 323 324 326 327 325 325 325 324 324 325 324 324 324 325 326 327 328 327 329 330 328 328 327 326 326 326 326 326 327 325 318 318 322 320 319 318 314 312 314 318 321 320 316 321 332 342 345 345 345 346 349 349 351 353 352 348 349 354
303 303 302 302 302 306 307 308 307 309 310 312 313 312 312 313 313 311 317 319 316 320 326 325 327 326 325 327 326 326 324 324 326 327 326 325 324 325 324 323 324 319 314 316 321 323 326 327 328 330 329 329 327 323 323 325 326 325 323 318 312 310 313 313 313 314 313 312 316 319 321 317 316 325 336 343 345 344 344 345 345 347 350 352 353 352 353 354
303 303 302 302 304 309 310 309 309 311 313 314 312 313 312 312 312 312 315 317 316 323 326 325 326 327 326 326 326 327 325 324 327 327 327 325 325 325 324 324 326 320 315 315 316 314 319 325 327 328 328 328 326 320 316 318 322 323 318 313 310 310 311 313 312 312 313 312 316 320 320 315 316 328 340 342 342 344 344 344 345 346 351 354 354 353 353 352
303 303 304 305 309 312 312 311 313 313 314 316 313 313 313 312 314 314 315 317 320 323 325 325 326 326 326 325 326 327 325 325 327 327 327 326 324 323 324 325 326 325 322 317 314 313 312 316 324 326 326 327 328 323 320 321 322 323 324 320 312 310 311 311 311 311 312 312 314 318 318 313 313 327 340 340 340 343 343 344 346 349 352 354 352 351 351 352
304 305 307 310 311 312 313 313 314 313 315 317 314 312 313 312 313 313 315 320 320 323 323 324 326 323 323 326 327 327 325 324 326 327 327 326 323 323 324 324 324 326 324 316 315 317 311 313 325 328 327 328 327 325 327 325 319 322 326 320 312 313 314 311 311 312 312 312 313 314 315 318 324 334 342 339 340 343 342 343 346 347 350 351 350 350 351 350
305 308 310 312 312 313 314 315 315 315 315 317 314 313 313 312 314 315 318 320 321 322 322 321 323 319 317 321 325 327 326 325 327 326 325 326 325 325 326 325 324 325 324 319 318 317 311 314 328 330 327 329 327 326 328 322 317 320 319 313 316 324 321 311 309 313 313 312 313 313 314 320 326 331 336 339 340 342 343 341 342 345 348 350 351 350 350 350
307 310 311 313 314 314 314 315 316 316 315 316 316 316 314 313 315 316 318 320 320 322 321 316 318 317 313 315 320 326 326 324 326 324 321 323 324 324 326 326 325 325 325 324 321 321 316 314 326 332 326 328 328 326 328 326 323 319 313 315 322 324 322 316 310 311 313 313 314 312 311 314 316 321 333 341 340 340 344 342 341 346 347 347 350 352 352 351
309 311 312 315 316 315 314 315 317 316 316 316 317 318 316 315 316 315 316 318 317 320 319 314 317 320 316 313 317 325 326 320 322 322 320 321 321 325 328 327 326 326 326 325 323 325 322 312 320 332 328 327 330 326 323 325 327 322 318 323 322 313 312 313 310 311 313 313 314 312 312 313 312 317 329 337 339 342 344 344 343 344 344 346 350 356 358 355
310 311 313 315 316 316 315 316 317 316 316 317 317 317 316 315 317 316 316 317 316 317 317 315 317 320 319 318 319 325 325 319 321 321 317 319 320 324 329 327 326 327 326 327 325 325 326 315 314 327 331 329 327 323 317 318 324 325 322 325 323 315 312 312 311 312 312 313 313 312 312 313 318 325 331 336 343 345 343 347 346 342 342 344 349 356 358 358
311 310 310 311 314 316 316 316 315 314 315 317 317 317 316 316 317 316 316 317 317 317 317 317 318 318 320 322 321 324 326 323 324 321 318 321 321 323 328 328 327 327 326 327 326 324 327 319 312 322 331 325 321 322 320 319 321 320 317 316 317 317 317 316 314 313 312 312 312 313 312 313 323 335 337 340 345 344 344 348 347 345 341 341 346 351 353 356
309 309 310 310 313 315 316 315 314 313 313 314 315 315 316 317 316 317 317 316 317 317 317 317 317 317 319 321 322 323 325 325 325 323 321 323 321 321 326 327 328 328 327 327 327 324 324 321 314 315 319 317 319 327 328 326 325 322 317 315 315 316 314 312 312 312 312 311 311 313 312 313 327 339 341 343 344 340 343 346 344 343 341 341 345 348 351 356
307 308 310 311 312 313 314 314 314 314 313 313 314 314 315 316 316 317 317 318 318 317 317 317 316 317 318 319 322 324 323 323 323 323 322 323 324 323 326 328 328 328 327 326 327 327 326 324 317 312 316 321 327 330 328 327 329 326 324 322 321 319 313 308 308 310 310 310 311 312 310 316 333 346 344 345 346 339 340 345 343 341 342 342 343 346 351 357
307 308 309 310 310 310 311 312 312 313 312 313 313 313 314 315 314 315 316 317 318 317 318 317 317 317 317 317 320 323 322 321 321 323 323 326 327 326 326 327 326 327 329 327 326 329 329 323 316 313 320 326 328 330 330 329 328 324 323 325 322 319 317 314 314 315 311 309 310 311 310 316 332 349 348 346 348 341 338 343 343 341 343 341 342 350 354 358
306 307 308 308 309 309 309 310 311 311 311 311 311 312 313 313 313 314 315 316 318 318 318 318 317 317 317 317 318 320 319 317 319 322 323 325 326 327 327 326 327 328 326 327 329 326 323 322 317 313 315 319 320 322 322 324 325 323 324 326 324 322 323 320 319 319 314 310 311 311 310 315 330 350 352 344 343 340 337 339 340 342 344 342 348 356 359 362
306 307 308 308 310 309 309 309 309 309 309 309 310 311 313 314 314 314 315 315 316 317 317 318 318 317 317 317 317 318 318 317 318 321 323 323 325 328 326 326 328 326 327 340 345 329 322 325 322 314 312 314 314 313 314 318 321 322 324 325 325 325 322 317 314 312 311 314 315 312 311 317 331 345 345 339 340 342 343 339 338 343 344 350 363 362 360 367
306 307 308 308 309 309 309 309 309 309 310 310 312 313 314 314 315 314 315 316 315 316 317 317 318 318 317 317 316 316 317 317 317 319 322 323 325 326 326 327 327 325 337 351 346 331 328 329 327 321 316 315 316 319 324 324 319 317 320 322 324 325 324 320 312 308 311 314 313 316 320 320 327 338 340 339 339 340 346 343 342 352 350 351 368 369 367 373
307 307 308 308 309 309 309 310 310 310 311 313 313 314 314 314 314 313 314 316 316 316 317 317 317 318 316 316 316 315 316 318 318 317 319 322 323 326 326 326 326 330 344 344 333 331 330 324 326 329 323 321 326 328 330 327 320 318 318 320 322 324 324 319 312 312 318 313 308 322 334 322 322 334 340 342 342 340 347 345 342 355 353 346 365 376 372 373
306 307 307 308 308 309 308 309 310 310 311 312 312 312 312 312 312 312 313 314 314 315 317 318 319 320 319 317 316 316 315 316 317 317 319 321 323 325 325 325 326 331 338 332 326 331 329 320 325 327 322 325 329 329 331 329 326 325 323 321 322 322 321 317 315 319 323 315 311 326 339 329 327 334 335 340 345 341 344 345 339 347 348 345 364 374 368 368
306 306 307 307 308 308 308 308 309 309 309 310 311 311 311 311 311 311 312 312 313 313 314 317 317 317 319 319 319 322 321 316 315 317 319 319 321 323 324 325 324 327 329 326 326 331 326 322 330 328 322 325 328 328 331 329 326 325 324 324 324 324 322 320 321 323 323 322 321 328 335 333 331 333 332 336 340 339 343 346 341 342 342 345 359 363 357 360
306 306 307 308 308 308 307 308 309 309 310 311 311 310 309 310 311 311 312 311 312 312 313 314 315 314 315 316 317 322 323 319 319 321 322 322 321 321 322 323 325 325 325 324 326 329 323 323 332 331 321 322 327 329 329 328 327 323 323 327 326 325 325 322 323 324 322 323 325 325 326 329 331 333 335 335 337 340 342 343 343 347 344 343 347 349 348 351
307 307 306 307 308 308 308 308 308 309 310 310 310 309 308 309 310 310 312 311 311 312 312 312 312 312 313 314 315 318 318 317 318 319 319 321 322 324 323 321 323 324 323 323 325 326 325 324 329 329 319 317 325 327 326 327 327 320 320 325 325 323 324 323 325 326 323 322 324 321 319 324 331 334 333 335 337 338 339 339 342 347 347 344 342 345 347 350
307 308 307 307 308 308 308 308 308 308 309 309 309 310 309 309 309 309 311 311 311 312 312 311 311 311 312 313 314 315 314 314 316 316 317 319 321 324 326 323 322 322 323 324 323 324 326 324 322 323 318 317 323 326 325 324 320 315 318 325 327 327 327 326 327 329 328 325 322 318 319 329 337 335 332 333 334 335 339 339 340 346 354 355 350 345 347 350
Wind_Speed
24 24 23 22 23 23 23 22 21 21 21 20 20 21 22 22 22 23 23 23 24 25 26 26 26 26 26 24 23 24 26 25 23 17 16 20 21 17 11 9 10 11 11 12 14 15 16 17 17 18 14 10 9 8 12 10 8 4 3 2 2 3 5 1 6 5 4 7 8 8 9 10 8 8 7 9 11 11 9 9 9 9 14 19 23 29 29 27
24 23 23 23 23 23 24 23 22 23 22 22 22 23 23 24 24 24 24 24 25 25 26 26 26 26 26 24 22 22 24 22 20 22 25 25 20 19 18 13 11 12 14 15 17 18 15 14 16 16 12 9 8 9 11 8 8 6 3 2 3 5 5 5 12 5 2 4 8 7 8 10 9 9 7 9 11 10 10 11 10 12 18 22 25 28 28 26
24 24 24 23 23 24 24 23 24 24 24 24 25 25 25 25 25 25 25 25 25 26 26 27 26 26 26 24 22 20 18 18 19 19 18 17 14 13 13 13 13 14 18 19 18 18 16 14 15 14 11 9 9 10 11 7 8 6 4 3 4 7 4 8 13 4 2 5 9 6 7 9 9 8 7 9 11 10 10 11 11 15 19 21 22 25 27 26
24 24 24 24 24 24 24 24 24 25 26 27 27 27 27 27 27 26 26 26 26 26 26 26 26 26 24 23 20 16 13 15 11 2 9 12 9 6 5 9 14 16 19 20 18 18 17 15 14 13 11 9 9 11 11 7 6 4 5 5 5 5 6 12 12 8 7 7 9 6 7 8 8 7 7 11 10 9 10 10 13 17 19 21 22 22 23 23
25 24 24 24 24 25 26 26 26 26 28 28 29 28 28 29 28 28 27 27 27 26 26 25 26 25 23 22 17 11 10 8 2 11 16 11 7 3 0 4 11 16 19 20 19 17 17 15 13 12 10 9 10 10 10 9 6 4 8 11 9 2 1 16 14 7 6 5 8 7 7 7 9 6 7 10 6 7 11 11 16 18 20 21 20 21 21 21
25 24 24 24 26 27 28 28 28 28 29 29 30 30 30 30 29 29 28 28 27 25 25 24 25 24 22 20 12 7 7 5 3 6 14 10 6 2 2 2 7 14 18 19 19 17 16 15 13 11 9 9 12 11 11 12 9 6 8 11 9 5 7 15 9 6 3 5 7 6 7 7 8 6 6 8 4 7 15 14 17 18 20 21 20 20 20 20
25 25 25 26 28 29 29 29 29 29 30 31 31 31 31 32 31 30 29 29 27 24 24 23 24 23 21 17 8 6 8 12 17 11 12 9 7 3 3 4 6 13 16 18 17 16 14 14 14 11 10 10 11 13 14 12 10 8 7 11 9 10 13 11 4 5 4 5 7 6 8 7 8 6 7 7 2 10 18 15 18 19 20 21 19 20 20 20
26 25 26 28 29 29 30 30 31 31 32 32 32 32 32 32 32 31 30 29 26 23 22 22 22 20 16 11 7 7 10 16 13 11 10 7 6 5 7 6 8 14 16 18 17 15 14 15 15 12 11 12 11 12 13 13 11 11 9 11 12 13 12 7 6 6 7 5 6 8 8 6 7 6 7 8 5 12 18 16 19 19 19 20 19 20 19 18
25 25 28 30 30 30 31 31 32 33 33 33 33 34 34 33 32 32 30 28 25 23 21 21 20 16 9 6 7 8 12 12 7 11 4 5 8 9 11 10 13 16 16 18 18 17 14 13 15 14 13 13 13 14 13 12 9 10 12 10 10 11 9 7 10 7 8 6 7 8 9 8 6 7 7 10 9 11 17 17 19 19 19 19 18 19 18 18
25 27 30 31 31 31 32 32 33 34 34 34 35 35 35 34 34 32 30 27 24 23 20 18 16 9 5 6 8 9 10 8 6 8 5 8 11 11 13 14 16 16 15 16 18 18 14 12 13 13 13 13 13 14 14 13 10 12 14 11 10 10 9 8 10 8 7 8 10 9 9 9 8 7 6 11 10 10 17 17 18 19 18 18 17 17 16 17
26 28 32 32 32 32 32 33 34 34 35 35 36 36 35 34 34 31 28 26 24 22 18 14 11 5 7 8 8 8 6 7 6 6 8 10 10 11 13 14 16 16 15 14 16 18 16 15 13 9 9 10 13 14 15 15 14 16 15 12 9 8 9 10 11 9 6 8 12 10 9 9 9 7 6 13 12 12 17 17 18 17 16 17 17 16 14 13
28 30 34 34 33 33 33 34 35 35 36 36 36 35 35 34 33 29 28 27 23 18 13 11 7 4 8 9 11 18 16 14 12 9 9 11 11 12 12 12 15 16 15 14 15 18 18 17 16 13 10 9 12 12 12 15 16 16 15 12 9 9 8 11 12 10 7 7 11 10 9 10 10 7 8 15 13 13 17 16 17 17 15 16 15 15 13 13
32 33 35 34 34 34 35 35 36 36 36 37 36 36 35 33 30 28 28 27 20 14 10 8 5 5 8 8 14 25 25 21 17 16 15 13 13 15 14 13 14 15 16 15 14 17 18 17 17 16 13 11 11 9 11 14 13 13 14 11 8 10 9 11 12 11 9 8 12 11 7 8 10 8 10 16 13 14 17 16 16 15 15 15 14 14 13 14
33 34 35 35 35 36 36 37 37 37 38 38 37 37 35 30 28 27 28 24 16 8 6 6 6 7 8 10 18 25 24 22 20 19 17 15 15 15 16 16 15 16 16 17 16 16 16 18 17 14 13 13 13 12 13 13 10 10 12 9 7 8 7 11 12 12 10 9 12 11 6 6 11 10 11 16 14 15 16 16 16 15 14 14 13 14 14 14
35 35 35 36 37 37 37 38 38 39 39 39 39 37 32 28 27 27 25 18 10 6 5 5 8 7 8 12 19 22 20 20 20 20 18 17 17 15 17 18 17 17 17 17 17 16 15 16 15 11 11 13 14 14 12 10 9 9 10 9 9 8 7 8 11 12 10 10 12 12 6 5 9 11 14 16 14 15 15 15 16 16 16 15 14 14 14 14
35 35 35 37 38 38 38 39 39 40 39 40 40 34 28 27 26 25 20 11 6 5 5 5 11 12 8 7 7 9 14 18 19 20 19 19 18 16 17 18 17 17 17 17 15 14 15 13 11 10 11 12 13 12 10 9 9 9 9 9 10 10 8 7 10 13 11 9 11 12 7 5 5 8 13 17 15 15 15 15 17 16 16 16 13 13 14 13
35 35 36 38 39 40 39 39 40 39 40 41 37 31 28 26 21 18 12 4 4 6 8 8 10 11 10 9 6 6 11 15 16 16 17 18 19 18 17 15 13 15 16 16 15 14 14 12 9 9 11 11 11 11 10 10 9 8 9 8 10 12 9 6 8 12 13 11 11 12 10 7 6 13 14 18 16 15 15 16 17 15 15 15 13 14 14 13
35 36 36 38 39 40 39 40 40 39 41 40 33 30 29 21 13 10 4 5 4 6 11 13 10 7 9 11 11 13 14 13 12 11 13 17 18 18 16 12 11 13 14 12 14 14 12 10 9 9 10 10 11 11 11 12 11 10 10 9 10 11 9 7 7 9 13 13 11 12 12 8 9 16 16 18 16 16 15 15 15 15 15 15 14 14 14 14
34 35 37 38 39 40 40 40 39 39 40 35 29 28 21 10 5 4 6 8 7 5 6 7 10 8 7 7 10 13 10 8 11 9 12 15 15 15 15 12 11 13 13 10 12 14 10 8 9 10 10 12 14 14 15 15 15 15 13 12 11 11 10 10 9 9 13 13 11 12 11 9 9 13 15 16 15 15 15 14 14 14 15 15 14 13 14 15
34 35 39 39 39 41 41 39 39 37 35 32 30 24 12 5 3 2 4 7 10 11 12 9 12 14 14 13 10 7 4 7 10 10 13 14 13 13 13 11 12 12 12 11 12 13 11 9 11 12 13 16 18 20 20 18 18 19 16 13 15 13 10 11 12 12 13 11 11 12 12 12 11 10 12 14 15 15 15 15 14 14 14 14 15 14 14 15
37 38 40 40 39 41 41 40 39 33 28 26 24 15 7 8 6 6 7 10 14 16 20 20 18 19 19 18 15 10 5 9 13 12 13 14 12 11 10 12 13 11 12 14 12 11 12 11 14 16 18 19 20 21 21 20 20 20 17 13 13 12 9 10 12 13 14 10 10 14 14 13 14 12 10 11 14 15 15 15 15 16 15 13 14 15 14 13
39 39 41 41 39 40 40 40 36 27 21 17 12 10 7 9 7 10 11 12 16 17 21 23 23 23 22 23 25 21 14 11 15 14 14 14 13 10 10 13 14 11 13 15 11 10 12 13 17 19 19 19 20 20 21 22 21 18 15 14 12 9 9 10 12 13 13 8 9 14 14 12 14 14 11 10 13 13 14 15 15 15 15 14 15 14 14 13
40 41 42 40 39 39 39 39 30 18 15 13 12 12 10 9 9 13 11 10 16 17 19 21 23 22 22 22 24 23 19 15 14 15 16 15 13 12 11 12 14 14 14 15 13 11 11 13 18 20 18 20 21 21 22 21 18 15 13 13 12 11 11 8 11 15 13 11 10 12 11 10 12 14 15 16 16 12 14 16 15 15 14 14 15 14 14 15
40 41 40 40 41 38 38 37 23 12 14 17 16 11 9 9 11 15 11 8 13 14 16 22 21 19 21 20 21 21 18 15 14 14 17 17 14 13 13 13 14 14 14 17 19 17 14 14 17 19 20 21 21 21 21 17 13 16 17 15 13 14 15 10 10 14 13 14 12 11 9 8 11 13 14 16 15 14 15 17 16 15 14 14 15 15 15 15
40 41 40 41 40 38 40 30 14 18 25 19 12 9 10 11 12 14 11 6 9 11 14 19 14 16 23 21 19 19 16 16 16 15 15 18 16 12 11 11 11 13 16 20 20 16 17 16 16 19 21 21 21 19 20 16 11 15 19 20 19 18 18 13 11 11 10 11 11 10 8 7 10 14 14 12 13 14 13 15 16 14 13 14 14 14 15 15
40 40 39 40 39 41 35 15 12 28 25 11 9 13 14 13 13 13 8 5 7 9 10 12 10 13 19 18 16 16 15 15 16 17 17 19 19 13 11 9 8 13 16 16 14 10 13 18 17 19 20 22 21 18 20 20 13 11 16 20 23 23 20 14 13 12 9 9 11 12 9 7 9 12 14 13 13 13 10 13 17 14 12 14 13 12 14 16
39 38 40 39 38 39 25 11 21 27 15 8 15 17 16 14 14 12 6 5 6 6 8 9 8 11 15 16 16 15 11 9 13 19 20 19 20 15 13 12 9 12 12 10 10 8 12 19 19 19 19 19 18 16 18 21 15 11 14 19 21 23 23 18 15 13 10 9 11 15 13 8 8 9 14 16 15 15 13 13 16 15 15 16 15 14 14 15
38 39 40 38 38 33 18 18 23 17 11 16 20 17 16 15 14 9 5 5 4 2 8 6 4 6 9 12 18 16 10 6 9 17 21 22 21 15 14 16 14 14 14 11 10 11 14 18 20 20 17 14 15 16 18 21 17 13 15 18 18 20 22 20 16 12 10 9 9 14 14 9 8 8 11 16 16 14 13 13 15 15 17 17 16 17 16 15
39 40 38 40 40 27 12 15 19 18 19 20 18 18 17 16 12 5 5 6 4 2 5 6 4 7 9 11 17 18 14 9 8 12 21 23 21 16 13 16 17 16 18 16 13 12 13 15 18 19 15 13 15 18 21 21 16 15 17 18 17 18 19 18 15 11 10 9 9 13 14 8 7 8 10 13 14 14 15 16 16 17 18 16 15 16 16 14
40 40 38 41 37 21 15 17 22 22 21 17 16 18 17 13 7 5 8 6 3 2 5 6 6 11 13 13 15 17 17 14 9 11 16 17 20 18 12 13 16 14 15 17 16 16 15 14 15 15 13 13 16 17 19 20 18 17 17 16 16 15 15 14 12 11 11 10 11 14 16 12 8 9 10 11 12 14 15 16 17 20 21 17 14 15 17 14
40 41 40 40 34 21 15 16 18 15 14 13 15 16 12 7 4 8 9 4 4 5 5 6 10 14 17 17 14 15 19 16 12 13 13 13 17 16 12 11 12 11 12 13 14 17 19 16 12 12 15 16 16 15 16 19 20 18 14 12 12 11 11 10 10 12 12 10 12 17 19 17 11 8 10 12 15 17 17 16 18 21 21 16 14 16 15 12
40 41 41 38 34 24 16 16 18 17 15 14 14 11 6 5 7 10 8 2 4 8 8 10 12 13 18 19 15 16 18 15 14 14 14 13 13 14 14 12 10 10 11 11 11 14 16 17 15 13 15 18 16 12 14 17 17 16 12 11 10 8 8 9 9 10 11 11 14 18 19 16 11 10 12 15 17 19 18 15 17 20 19 16 14 14 12 11
40 43 41 33 27 21 22 21 21 19 14 12 10 6 4 8 10 10 11 8 5 5 5 10 13 15 17 17 14 16 17 15 16 15 15 16 13 15 18 18 15 13 10 10 12 11 11 15 19 16 13 16 17 12 11 13 12 13 13 11 10 9 8 10 10 10 10 12 16 18 16 12 11 10 15 18 17 17 17 16 16 16 16 14 13 13 13 14
42 41 36 29 24 22 23 21 19 16 13 10 7 5 9 13 10 9 12 13 11 11 6 3 9 14 17 15 14 15 15 15 18 17 16 16 13 13 16 20 22 16 10 11 11 10 12 12 16 17 10 13 18 15 12 12 12 14 14 13 12 10 9 9 9 9 10 10 13 16 13 10 9 7 13 18 17 15 15 15 14 12 13 14 13 15 16 16
42 36 29 26 24 23 21 20 19 14 10 8 6 8 13 13 9 9 11 11 12 16 15 13 12 12 14 15 16 18 15 14 18 18 15 15 14 13 14 17 22 20 12 10 8 10 14 11 13 19 16 15 18 17 15 13 12 12 14 14 13 12 10 9 9 11 11 11 10 11 10 8 9 7 9 12 15 16 16 14 15 14 15 16 15 16 16 16
38 30 25 23 21 19 18 17 17 14 11 8 7 11 13 10 9 8 8 9 11 13 16 17 14 12 12 11 14 19 19 15 18 17 14 16 16 16 16 14 20 22 16 11 7 8 12 10 13 20 21 21 18 16 17 15 11 9 12 14 13 13 13 10 10 11 11 12 9 9 10 9 10 10 10 11 13 15 16 16 16 16 16 16 16 17 17 16
32 26 23 25 24 22 16 12 14 14 10 7 11 13 11 11 13 12 10 12 13 13 14 13 11 12 13 11 12 18 19 15 17 14 12 16 16 17 20 16 19 25 21 15 9 8 10 9 12 19 21 22 19 17 19 19 16 11 10 13 13 14 14 10 8 9 11 11 9 11 13 11 10 8 11 16 15 14 16 17 16 15 16 16 16 18 18 18
27 23 23 26 23 18 16 12 13 12 8 8 15 16 12 12 14 15 15 16 17 16 14 11 10 12 13 12 11 16 18 14 15 14 12 13 13 17 20 17 18 24 25 21 12 9 10 8 10 18 19 18 19 17 16 19 22 19 13 12 12 12 12 10 8 8 11 11 8 12 14 12 12 8 10 16 17 14 15 16 16 17 16 14 14 19 19 18
23 16 14 14 8 4 10 10 10 10 8 10 14 13 12 14 16 18 19 19 18 16 15 14 12 12 14 14 13 15 17 16 15 13 12 10 10 17 21 16 16 22 25 24 14 9 10 8 8 13 17 16 15 14 13 14 19 21 17 13 11 10 10 10 9 7 9 10 9 12 13 10 11 10 11 15 17 16 14 14 15 16 17 15 13 17 18 17
16 8 9 15 9 4 7 7 9 9 9 11 13 11 11 13 16 19 22 22 17 13 13 15 14 13 14 16 15 15 15 17 17 14 12 12 11 14 19 18 17 20 24 25 18 12 10 8 8 9 14 15 12 12 15 13 13 15 15 14 12 9 9 10 11 9 9 9 8 10 11 8 8 10 12 12 14 17 15 12 11 12 16 17 14 18 19 17
11 6 8 17 12 4 6 8 9 8 9 12 13 14 14 14 14 17 20 22 18 14 15 17 17 15 15 15 15 14 13 14 17 14 11 14 13 11 15 18 18 18 19 20 18 13 9 8 9 9 10 13 13 15 18 17 14 13 12 14 14 11 10 11 11 11 11 9 8 9 9 8 8 8 8 8 10 16 16 14 13 14 17 18 14 16 18 14
10 7 10 18 18 8 8 10 8 9 10 11 13 15 15 14 15 18 18 20 19 17 17 18 18 17 15 16 15 15 14 13 15 15 13 16 17 12 13 17 20 20 16 15 16 16 11 8 9 11 10 12 15 18 19 20 19 16 14 15 15 14 12 10 9 9 10 11 12 12 10 8 7 5 6 7 8 13 15 15 16 17 17 18 16 13 17 15
7 8 16 30 31 19 11 10 10 10 11 13 16 18 17 15 16 17 17 18 18 16 15 15 18 18 16 17 17 16 15 13 16 18 16 17 19 18 17 19 21 20 15 13 15 16 11 8 9 9 9 12 15 16 18 20 19 16 14 15 15 17 16 13 10 8 10 13 14 11 9 10 8 5 5 4 5 12 14 15 16 16 15 19 18 13 16 16
8 9 14 27 31 19 11 10 11 11 12 15 18 19 19 17 17 18 18 18 16 15 16 15 17 18 16 17 17 16 16 13 15 19 16 15 16 20 23 23 19 17 15 11 11 12 10 9 9 9 8 9 12 14 15 17 16 12 12 15 17 20 23 19 13 9 9 13 15 11 8 10 9 5 4 5 7 12 13 11 13 12 12 14 12 11 15 14
9 8 8 17 22 16 11 11 12 11 13 17 20 20 17 14 15 18 20 21 19 17 16 15 17 18 18 19 18 18 19 15 12 14 14 16 15 16 22 24 20 17 14 7 5 10 11 9 9 10 11 11 11 10 10 12 12 11 13 18 19 22 24 20 13 10 9 10 13 12 8 7 9 9 9 9 9 9 9 9 12 11 8 6 5 12 15 14
6 7 7 9 10 10 10 12 14 14 14 15 15 14 14 13 13 16 18 19 22 21 19 17 18 18 16 18 19 19 21 20 16 14 13 16 13 11 19 22 20 18 9 3 3 8 9 9 12 12 12 11 10 10 10 12 13 14 17 21 21 22 23 18 12 11 10 8 9 9 8 7 10 14 15 14 13 9 8 8 10 7 7 4 5 11 12 11
5 6 8 7 7 8 8 9 11 12 11 10 8 9 14 15 13 14 14 12 13 15 15 17 21 20 17 17 16 17 20 21 20 19 18 17 14 13 20 21 17 17 10 2 2 6 7 11 16 18 18 18 14 14 16 16 16 17 19 21 21 22 23 20 16 14 12 9 10 9 8 9 12 14 13 12 14 12 6 7 6 2 3 4 6 10 12 12
5 6 8 9 8 8 9 10 11 12 11 9 8 10 16 17 14 13 12 11 13 13 9 12 16 15 17 18 14 14 18 18 19 21 19 16 15 15 19 20 18 20 17 11 7 6 7 11 15 18 22 24 22 20 20 17 16 18 19 20 21 22 23 21 18 18 15 11 11 10 8 9 11 16 17 10 10 11 8 9 8 6 4 4 6 11 10 10
7 7 8 10 9 10 13 16 17 16 14 12 9 10 14 16 17 14 10 11 13 11 9 10 16 18 17 18 14 10 11 13 16 18 18 17 17 15 14 16 19 19 18 16 11 7 7 8 11 15 17 22 25 24 23 20 17 17 20 21 20 21 23 22 20 22 22 18 16 14 12 12 12 15 19 15 10 10 6 7 10 11 10 9 8 11 10 7
7 6 6 7 8 9 13 16 16 15 13 11 10 11 12 15 18 16 11 10 11 12 11 12 16 20 20 19 16 12 13 17 16 13 14 15 15 14 12 12 15 16 17 14 11 9 8 7 11 13 11 15 22 24 25 24 19 18 20 20 20 20 22 22 20 20 20 18 18 18 16 14 11 12 16 16 13 12 9 7 10 11 13 14 13 12 14 15
11 9 6 6 8 9 9 12 13 12 10 8 9 11 12 15 16 15 12 10 10 11 10 12 15 16 17 19 18 17 20 24 25 23 21 18 14 14 13 12 14 15 17 15 12 11 10 8 10 10 9 12 16 20 24 23 21 21 21 21 23 22 20 19 17 16 17 16 15 16 15 11 10 11 12 12 13 15 15 13 11 9 10 15 15 15 14 16
12 10 7 5 7 9 8 10 11 10 10 8 8 11 14 15 15 14 11 8 7 8 7 9 12 13 13 16 18 20 22 24 26 25 21 19 18 19 17 16 18 15 13 15 13 11 11 9 9 9 9 11 15 17 18 17 17 17 18 20 22 21 20 18 14 15 18 17 13 12 10 7 7 10 11 12 14 15 14 13 11 9 9 9 10 13 13 11
Wind_Direction
354 352 352 351 348 348 346 344 344 343 342 341 341 341 341 340 338 336 334 331 330 328 324 322 320 320 321 322 322 320 316 313 308 288 254 257 265 263 255 234 235 227 203 196 202 194 194 206 211 215 219 228 232 235 243 242 235 216 111 238 255 264 271 309 291 309 100 124 132 151 135 125 126 113 122 134 128 132 141 131 120 126 130 126 130 137 140 141
353 352 351 350 348 347 345 344 344 343 343 343 344 342 341 339 337 335 333 330 329 326 324 322 319 319 319 322 324 321 318 311 291 279 271 262 254 247 247 252 251 227 203 202 208 203 200 204 207 213 219 233 235 230 240 228 220 222 144 200 251 245 260 257 258 287 56 147 126 143 139 133 134 127 160 152 129 141 140 129 127 124 124 124 133 141 143 145
352 351 350 349 347 346 345 344 343 343 345 346 345 342 340 338 336 334 331 330 327 325 323 320 319 318 318 322 325 322 320 306 284 275 262 239 223 221 236 248 244 228 209 208 213 209 210 214 208 211 220 232 242 237 236 211 201 207 164 184 257 260 307 275 244 173 206 200 125 145 139 128 135 141 177 145 134 155 141 137 139 127 129 135 141 146 147 149
351 350 349 348 346 345 344 344 343 346 347 346 343 341 339 337 335 333 330 328 326 324 322 320 319 317 318 323 323 325 315 293 289 253 162 168 172 180 219 237 231 227 217 216 223 218 218 225 216 212 222 235 242 246 245 210 173 186 183 176 239 285 356 287 253 143 195 201 127 139 131 130 136 149 175 145 148 157 143 151 143 135 139 142 144 149 152 153
351 349 348 346 346 346 347 347 347 347 346 344 341 339 338 337 335 332 329 326 325 323 321 319 317 316 318 321 324 324 305 289 13 118 139 147 147 149 247 239 230 223 216 222 233 228 221 227 226 218 223 240 244 245 243 225 205 204 171 169 214 242 46 265 254 146 177 172 132 147 141 138 131 156 176 151 177 153 142 152 140 141 144 145 150 152 156 157
349 348 347 347 349 349 349 349 348 346 343 341 339 338 337 336 334 330 328 325 323 321 321 318 316 317 317 319 324 302 278 282 319 148 152 161 170 215 280 250 236 217 214 226 236 235 221 223 229 223 221 233 246 251 241 223 224 235 165 168 214 208 202 245 239 133 174 172 156 147 133 142 144 165 156 149 227 138 136 143 138 143 144 148 154 155 162 160
349 348 347 350 352 350 350 348 346 344 341 340 338 337 336 334 332 330 327 323 321 320 319 317 315 316 317 321 308 258 242 262 274 235 182 188 199 225 226 218 223 205 211 224 230 233 222 219 226 227 229 228 238 250 258 250 237 242 185 173 203 218 222 235 204 152 192 180 156 138 135 160 167 154 140 151 201 125 130 137 138 141 146 152 157 161 164 161
348 346 347 351 352 349 349 346 344 342 340 339 336 335 334 332 331 328 325 322 319 319 317 315 314 315 321 327 290 258 249 261 254 201 190 207 206 198 186 197 205 195 209 220 222 229 222 220 224 228 233 234 239 237 250 262 257 252 225 190 190 210 222 230 236 181 159 168 148 156 155 162 166 145 161 157 119 122 130 135 139 143 151 154 160 164 164 164
346 346 349 351 350 348 346 344 343 341 339 337 334 333 331 330 329 326 324 321 318 317 316 311 311 313 319 311 282 273 268 265 153 146 204 217 192 186 182 185 189 191 210 220 221 228 225 222 223 229 238 239 246 244 244 247 244 247 243 227 201 209 214 215 244 205 157 169 162 179 167 155 158 145 171 153 128 130 130 137 144 148 157 156 163 167 164 169
345 348 351 350 348 347 344 343 342 340 338 335 333 331 329 328 326 324 322 318 317 316 312 307 307 311 292 259 260 267 273 269 163 162 199 181 176 181 195 193 183 193 211 217 221 226 228 230 227 232 245 251 252 253 254 251 252 248 247 246 217 209 207 205 242 223 178 166 165 189 171 155 163 162 177 146 142 146 134 143 149 150 161 159 166 167 164 174
344 349 351 349 347 345 344 342 341 338 337 333 331 328 326 326 324 323 320 316 316 313 308 301 297 287 258 254 255 255 260 266 247 215 188 182 190 195 208 200 185 198 215 217 221 225 229 235 238 241 239 248 256 259 259 258 268 267 270 270 235 220 207 202 235 225 186 173 169 183 176 167 174 184 186 145 151 163 143 148 152 155 164 162 168 165 164 178
344 347 348 347 346 345 343 342 340 338 336 332 329 326 324 323 321 320 316 313 315 309 302 290 277 246 257 257 244 245 255 272 277 263 221 205 214 217 223 216 201 206 216 223 225 224 230 233 237 244 241 240 244 254 262 255 261 267 276 276 244 250 235 206 232 227 195 182 170 177 183 180 179 188 172 147 158 170 150 152 156 161 165 163 171 164 165 180
346 346 345 345 346 344 342 340 339 337 335 331 327 324 322 319 318 317 312 311 312 302 289 276 246 225 254 258 246 248 255 262 263 260 246 222 220 227 232 233 224 220 223 230 232 226 228 232 236 241 246 250 243 249 258 250 253 256 257 263 247 249 235 205 223 226 208 177 164 182 200 185 182 192 170 148 163 174 155 158 162 163 165 166 172 164 168 180
346 344 344 345 345 343 342 339 338 337 334 331 326 322 319 316 315 311 307 307 307 291 267 245 211 216 243 253 262 261 256 256 254 249 245 231 224 228 230 231 230 229 230 232 238 237 230 230 235 242 244 248 255 261 259 254 261 258 243 242 247 250 231 202 210 219 210 168 165 191 211 195 182 186 173 151 166 180 162 163 166 166 166 168 172 167 170 180
345 343 344 345 344 342 341 338 337 336 334 331 325 321 317 314 311 304 302 303 296 264 238 224 202 214 260 259 266 270 255 253 254 244 241 234 224 228 231 228 227 228 229 230 233 240 240 235 230 234 240 241 252 258 256 251 247 249 243 229 225 238 243 212 201 215 209 164 175 201 209 199 187 183 174 157 169 183 171 169 169 169 169 169 173 170 172 180
343 343 343 344 343 341 339 337 336 335 334 331 324 320 316 311 305 296 295 295 275 222 184 201 201 211 269 281 269 261 230 229 240 238 237 233 223 223 230 226 223 223 225 226 225 231 235 241 237 232 235 232 236 243 251 252 234 229 236 235 223 219 229 214 194 205 200 171 184 209 215 180 199 227 186 162 173 184 176 174 174 174 171 171 175 174 176 179
343 342 342 343 342 340 338 336 335 335 334 330 325 321 315 309 297 288 287 256 227 196 198 242 229 217 253 278 286 264 225 217 228 232 222 222 221 223 228 223 217 217 219 220 219 225 224 224 232 229 230 229 226 227 234 241 235 223 219 233 238 229 227 203 189 193 190 192 192 206 222 163 180 243 204 165 175 185 181 178 178 180 173 171 177 178 178 179
343 341 342 342 340 339 337 335 334 335 334 329 326 322 314 306 291 283 256 178 188 208 225 251 259 245 240 247 250 250 245 217 208 224 207 204 216 226 230 219 210 211 213 216 213 217 218 213 221 224 221 224 225 221 222 227 230 229 216 220 236 238 236 207 193 186 185 205 198 198 222 176 182 225 193 168 180 183 184 181 179 184 178 173 180 183 178 180
342 342 343 340 339 338 335 334 333 335 334 330 331 329 317 302 285 244 202 187 183 211 241 220 199 221 262 267 239 236 249 196 178 206 194 191 205 221 233 220 207 210 208 209 204 206 208 203 213 222 219 215 217 219 224 226 229 236 227 220 225 227 227 211 203 189 184 210 209 200 217 190 200 220 180 171 186 183 184 182 181 186 182 178 182 188 181 181
342 342 344 340 338 337 334 333 331 334 334 329 332 331 321 318 301 221 214 227 225 244 274 260 208 226 265 287 266 219 176 156 182 202 188 193 202 209 226 217 207 213 213 212 199 197 206 210 212 216 219 218 218 221 228 231 232 241 241 230 226 224 219 206 207 200 188 210 212 204 217 197 197 212 185 181 187 186 190 184 184 187 184 184 185 190 187 184
342 343 345 341 337 335 334 332 330 333 330 321 321 316 332 5 338 331 328 285 262 254 263 265 251 249 256 267 268 248 208 190 200 207 198 200 203 207 210 205 211 212 211 220 210 194 206 220 219 216 220 223 223 223 226 233 233 239 248 246 235 231 228 213 216 207 188 205 213 201 217 208 193 194 188 198 195 189 194 190 188 189 185 184 186 190 190 187
343 344 345 342 338 334 332 331 331 330 324 316 302 283 331 10 345 332 325 293 278 263 258 261 258 258 255 254 258 261 262 235 208 207 206 200 200 208 196 194 216 217 205 217 218 201 207 224 223 218 219 222 227 226 223 229 232 235 243 252 248 233 227 219 229 223 187 193 223 203 212 217 200 186 169 201 215 198 197 197 192 190 186 184 185 188 192 191
343 344 344 344 341 333 330 331 330 324 318 310 288 288 326 347 333 329 315 287 285 269 252 250 247 247 247 244 244 245 251 246 227 208 195 196 204 209 206 201 213 221 211 211 218 214 211 220 222 221 218 218 224 225 223 225 229 236 236 243 252 242 234 212 219 234 204 187 219 211 210 221 213 196 175 193 215 207 202 204 197 192 188 184 185 185 192 194
342 342 343 343 342 335 330 330 328 329 326 309 296 309 341 333 330 332 318 282 282 271 241 236 237 236 236 233 227 228 233 234 236 221 192 195 208 207 216 217 212 222 221 213 219 227 228 220 215 220 220 218 222 223 225 226 222 231 234 236 245 245 245 222 204 232 217 192 211 218 216 221 219 216 199 192 204 211 208 205 201 197 189 184 187 187 189 194
339 339 340 342 342 338 331 327 333 341 329 312 313 350 352 333 335 335 322 277 268 269 238 226 229 231 226 222 217 218 225 225 227 229 206 199 206 205 213 221 217 223 225 222 222 228 235 227 211 215 219 219 221 221 222 226 224 227 230 234 241 245 245 231 212 227 216 193 204 215 225 225 213 221 222 196 190 209 217 210 204 197 187 183 191 190 182 190
336 337 338 340 341 339 336 329 340 336 322 314 359 353 335 332 335 326 307 269 270 268 229 199 192 208 207 206 207 208 222 227 219 223 219 205 205 212 213 212 222 226 225 227 229 230 232 230 219 214 216 217 221 223 219 221 230 228 223 228 237 247 250 236 220 225 216 194 196 206 222 234 214 218 226 209 186 196 217 224 215 201 190 186 191 194 183 190
333 333 335 337 338 340 338 307 320 326 308 325 353 337 326 330 325 314 291 267 269 234 188 170 159 171 185 191 188 192 211 216 204 212 218 206 198 210 221 213 213 224 229 228 228 229 223 227 228 217 214 217 218 222 218 218 228 233 225 225 227 239 250 245 229 227 221 202 199 209 220 236 229 215 222 217 197 193 206 224 223 207 196 195 193 194 193 196
331 331 333 335 333 333 319 285 302 310 292 318 331 323 324 323 309 299 271 268 292 144 149 153 134 154 188 186 178 193 213 212 205 200 205 207 196 198 219 222 219 215 220 230 232 228 221 224 229 221 214 219 221 220 219 219 225 231 232 233 227 228 241 251 248 237 221 205 201 209 213 233 242 217 221 220 204 198 203 217 231 222 205 200 197 194 196 199
330 331 332 332 330 332 319 279 276 278 289 307 316 314 316 309 297 281 252 259 308 343 156 154 141 171 197 183 181 205 216 226 237 184 188 204 198 198 218 223 229 225 216 226 237 236 228 221 226 229 220 219 223 221 221 222 225 228 232 240 240 230 229 236 248 254 241 225 221 215 205 218 248 227 223 224 210 204 205 204 217 225 215 202 197 196 198 197
331 330 330 331 327 328 331 296 266 270 289 298 308 312 305 295 278 230 234 235 247 246 140 145 175 178 189 187 190 209 209 218 230 174 182 198 191 202 224 218 228 239 226 225 232 242 246 228 218 229 231 228 226 222 222 224 225 227 229 237 244 243 236 227 227 241 248 243 241 235 214 202 228 231 221 227 219 214 214 203 201 213 213 200 194 202 202 194
331 328 327 325 316 308 314 291 269 289 314 312 314 310 292 273 236 229 231 223 250 233 138 152 191 179 186 195 194 203 206 215 213 180 185 193 185 197 218 214 217 233 234 229 226 233 244 240 220 214 227 235 230 223 226 224 221 224 224 227 234 242 250 245 229 225 235 244 245 246 233 214 218 226 217 223 219 216 221 213 202 206 205 194 194 204 201 191
329 327 323 318 310 296 269 262 284 308 318 313 309 300 272 231 227 231 227 219 258 231 190 193 203 186 191 202 202 198 202 211 206 188 187 192 189 194 208 211 200 207 223 226 221 221 229 239 236 214 214 231 228 213 223 224 217 220 220 220 224 226 233 240 241 229 225 230 229 237 241 231 230 227 217 223 220 215 219 215 208 207 201 191 190 193 187 186
328 325 319 314 309 285 255 264 287 292 296 300 290 275 241 237 232 218 222 234 249 249 200 196 208 200 195 205 210 200 198 206 203 192 192 198 199 198 206 213 208 207 215 215 218 220 217 226 235 226 205 219 227 212 213 217 208 213 216 215 217 218 220 224 233 238 230 227 225 230 240 242 240 225 213 221 223 217 217 210 208 207 193 178 175 184 186 190
325 322 318 313 304 284 266 264 266 266 275 277 260 237 226 235 234 218 224 229 244 275 284 245 229 213 201 207 215 205 199 205 204 197 194 199 207 206 204 211 214 215 218 217 216 218 220 216 220 226 209 201 218 220 217 214 210 213 216 220 222 219 223 224 225 234 237 239 234 229 233 240 245 219 200 215 220 215 216 210 202 192 177 174 181 192 196 194
325 323 317 305 293 283 269 250 240 243 250 244 236 228 224 229 232 231 235 232 243 263 272 273 261 234 215 211 214 215 212 207 204 204 203 203 210 211 204 206 212 215 216 218 217 214 227 227 205 213 219 208 209 214 219 224 221 212 211 221 224 218 223 235 236 234 235 241 241 233 227 225 234 219 192 210 218 210 209 209 200 188 184 188 187 189 194 195
324 320 310 293 280 274 262 233 218 221 227 230 231 227 227 234 236 234 242 244 241 249 262 263 252 243 234 217 213 217 219 214 202 203 209 208 212 216 213 206 205 211 215 215 220 214 223 232 205 203 214 216 210 205 210 222 230 213 209 219 223 218 222 236 243 239 238 240 237 237 235 224 227 222 203 210 223 217 209 208 206 195 192 191 181 185 192 192
320 316 305 289 279 272 255 213 195 209 221 228 231 234 236 240 244 250 259 265 265 259 258 254 241 240 238 227 219 213 213 216 208 206 209 207 212 215 216 214 203 206 215 219 228 229 227 237 213 203 210 210 205 205 208 217 232 232 212 210 216 221 222 232 239 228 234 243 237 234 239 236 236 224 196 198 209 217 208 203 206 196 194 199 183 179 186 185
309 305 296 287 281 262 238 201 191 210 221 230 239 244 248 247 248 255 261 270 278 274 265 258 246 241 236 234 229 215 212 213 210 214 215 208 211 209 211 219 210 203 209 217 227 229 228 244 220 207 210 201 193 204 212 212 223 237 237 211 207 217 216 222 234 221 226 240 236 233 234 235 240 231 196 192 193 203 201 195 202 195 194 207 182 168 178 184
297 294 288 294 305 210 199 191 200 221 225 231 241 243 246 254 256 262 269 275 279 276 269 266 260 251 243 238 236 226 216 214 216 219 217 215 209 203 206 214 213 204 203 209 223 231 224 241 236 209 202 194 186 199 214 208 211 229 243 232 215 219 218 219 229 223 225 236 236 235 234 232 238 238 224 204 184 186 194 192 200 198 199 210 183 165 179 188
297 297 284 286 292 147 165 210 227 235 232 235 246 250 250 254 254 257 263 267 273 272 266 265 261 257 253 245 242 239 227 219 220 218 216 221 215 206 207 209 212 209 200 201 213 226 224 230 242 217 196 196 194 197 208 209 204 213 232 237 224 213 214 221 227 220 220 236 237 234 236 232 232 237 241 227 182 173 185 187 194 205 210 217 197 176 181 184
308 300 272 278 279 177 187 240 242 237 239 243 248 253 257 262 264 260 257 258 260 258 261 268 266 263 263 256 246 241 240 232 223 217 215 219 221 215 207 205 211 210 200 200 206 213 222 223 232 230 208 205 206 199 201 208 212 209 214 230 232 220 212 218 223 216 213 227 234 238 245 239 230 230 239 233 180 171 185 187 190 208 219 231 224 181 169 173
299 272 274 293 306 302 254 251 248 243 244 248 251 254 258 260 263 262 260 259 259 256 256 259 262 263 263 261 256 249 250 246 233 226 215 214 221 221 210 205 209 211 207 204 202 204 215 223 226 230 229 227 215 198 197 204 214 221 216 217 228 231 225 222 220 214 214 223 228 235 244 242 240 238 238 234 182 176 194 192 193 205 210 228 235 186 161 171
285 284 291 296 301 301 276 256 254 252 251 255 258 260 261 260 259 259 258 256 254 256 255 250 251 254 255 257 259 260 260 255 249 244 227 217 219 219 224 218 207 209 211 206 201 198 205 221 225 224 232 246 233 204 197 203 209 222 225 214 218 226 230 233 228 214 218 226 225 225 229 234 244 250 251 254 188 185 198 192 195 206 201 212 224 192 166 173
294 295 288 286 286 281 262 253 253 251 254 258 257 255 254 255 256 255 252 251 250 251 252 251 248 246 250 257 258 262 264 258 256 254 248 240 221 209 219 220 208 210 210 202 198 190 194 215 220 217 217 232 233 210 198 206 207 214 225 222 219 222 226 234 236 223 222 227 225 227 227 219 224 241 263 264 217 199 199 197 204 215 209 210 208 168 160 166
297 287 275 277 274 261 243 246 254 256 257 258 258 257 258 262 266 265 259 253 251 251 251 252 253 248 245 247 249 256 260 258 262 260 257 258 239 211 217 216 204 209 214 216 225 198 193 205 208 217 217 210 218 216 198 201 207 210 220 226 228 223 223 229 235 235 231 224 224 233 242 215 200 215 233 242 234 200 184 211 226 216 207 210 152 142 157 164
296 288 287 285 273 255 243 242 247 254 259 262 265 273 286 291 290 293 286 261 248 250 253 250 253 254 251 247 244 247 250 252 260 263 262 263 250 225 232 224 200 197 206 9 315 216 203 209 206 215 230 223 218 223 215 203 205 209 211 219 229 229 225 224 228 236 235 232 235 240 255 244 215 213 215 215 228 224 180 206 236 206 174 180 132 141 158 160
278 278 284 299 302 285 273 258 250 254 267 279 285 295 298 297 295 302 305 288 273 278 274 259 249 243 243 248 246 244 246 247 252 256 258 262 259 239 235 231 207 197 207 339 290 222 221 220 210 209 224 237 235 228 226 216 210 216 212 212 223 230 229 225 223 232 236 236 238 233 242 252 241 241 234 203 212 234 199 184 238 249 170 188 144 145 161 163
268 271 281 295 297 286 289 291 283 283 289 288 288 289 289 291 291 292 303 314 322 335 328 289 278 265 255 260 261 251 248 244 244 250 252 253 261 251 232 226 214 199 205 230 234 226 238 231 222 216 216 227 235 237 237 229 217 219 219 213 215 223 232 235 228 226 230 238 238 225 222 233 238 252 259 238 214 229 203 174 205 226 229 227 151 145 162 169
269 273 285 296 295 291 295 294 290 289 282 270 268 272 275 279 278 279 296 310 311 328 343 329 330 330 314 306 305 283 267 260 246 243 246 245 250 253 239 230 220 195 194 222 230 224 240 231 232 238 225 218 226 233 242 245 234 228 228 222 217 216 222 232 239 233 230 235 239 237 238 236 229 239 254 263 262 251 223 182 193 198 204 224 198 160 161 181
271 284 301 306 299 296 299 295 287 281 273 266 263 258 255 263 269 272 282 294 299 314 335 346 342 333 327 323 320 322 334 327 309 290 281 268 252 247 243 239 233 208 197 219 228 215 228 225 219 238 246 229 222 222 231 243 246 245 244 236 234 234 222 218 228 236 239 240 234 230 238 243 234 230 239 249 258 263 262 243 221 202 193 209 223 204 186 189
271 284 295 303 298 294 296 294 286 278 273 269 270 269 258 249 254 263 269 274 284 296 320 347 343 327 319 317 316 328 341 334 326 324 318 304 286 269 259 245 240 225 204 211 225 213 213 226 220 224 241 241 231 221 221 229 237 244 247 238 234 240 236 224 220 225 235 248 244 231 231 234 230 229 233 236 242 250 256 255 251 238 212 208 219 226 212 191
278 283 276 275 288 286 285 292 290 280 274 270 270 281 282 272 262 263 267 264 260 269 294 331 329 316 310 314 319 327 330 324 316 312 305 295 290 287 280 254 239 240 218 205 214 215 212 221 222 222 231 234 235 233 227 227 230 233 238 238 235 237 239 240 242 234 228 233 243 244 244 246 237 232 232 232 233 237 240 247 254 254 243 228 221 224 223 196